TimePDT,TemperatureF,Dew PointF,Humidity,Sea Level PressureIn,VisibilityMPH,Wind Direction,Wind SpeedMPH,Gust SpeedMPH,PrecipitationIn,Events,Conditions,WindDirDegrees,DateUTC
12:00 AM,30.2,-9999,N/A,30.21,10.0,Calm,Calm,-,N/A,,Clear,0,2012-11-03 07:00:00
12:20 AM,30.2,-9999,N/A,30.22,10.0,South,5.8,-,N/A,,Clear,180,2012-11-03 07:20:00
12:40 AM,32.0,-9999,N/A,30.22,10.0,South,4.6,-,N/A,,Clear,190,2012-11-03 07:40:00
1:00 AM,28.4,-9999,N/A,30.22,10.0,South,3.5,-,N/A,,Clear,170,2012-11-03 08:00:00
1:20 AM,28.4,-9999,N/A,30.23,10.0,South,4.6,-,N/A,,Clear,190,2012-11-03 08:20:00
1:40 AM,28.4,-9999,N/A,30.23,10.0,South,6.9,-,N/A,,Clear,190,2012-11-03 08:40:00
2:00 AM,32.0,-9999,N/A,30.23,10.0,SSW,9.2,-,N/A,,Clear,200,2012-11-03 09:00:00
2:20 AM,32.0,-9999,N/A,30.24,10.0,SSW,6.9,-,N/A,,Clear,200,2012-11-03 09:20:00
2:40 AM,28.4,-9999,N/A,30.24,10.0,South,8.1,-,N/A,,Clear,170,2012-11-03 09:40:00
3:00 AM,28.4,-9999,N/A,30.24,10.0,SSW,6.9,-,N/A,,Clear,200,2012-11-03 10:00:00
3:20 AM,28.4,-9999,N/A,30.24,10.0,Calm,Calm,-,N/A,,Clear,0,2012-11-03 10:20:00
3:40 AM,26.6,-9999,N/A,30.24,10.0,South,5.8,-,N/A,,Clear,170,2012-11-03 10:40:00
4:00 AM,28.4,-9999,N/A,30.24,10.0,South,4.6,-,N/A,,Clear,180,2012-11-03 11:00:00
4:20 AM,26.6,-9999,N/A,30.24,10.0,SSW,5.8,-,N/A,,Clear,200,2012-11-03 11:20:00
4:40 AM,28.4,-9999,N/A,30.24,10.0,SSW,6.9,-,N/A,,Clear,200,2012-11-03 11:40:00
5:00 AM,28.4,-9999,N/A,30.25,10.0,SSW,6.9,-,N/A,,Clear,200,2012-11-03 12:00:00
5:20 AM,26.6,-9999,N/A,30.26,10.0,SSW,5.8,-,N/A,,Clear,200,2012-11-03 12:20:00
5:40 AM,26.6,-9999,N/A,30.26,10.0,SSW,8.1,-,N/A,,Clear,210,2012-11-03 12:40:00
6:00 AM,26.6,-9999,N/A,30.26,10.0,SSW,8.1,-,N/A,,Clear,210,2012-11-03 13:00:00
6:20 AM,28.4,-9999,N/A,30.26,10.0,SSW,5.8,-,N/A,,Clear,200,2012-11-03 13:20:00
6:40 AM,26.6,-9999,N/A,30.27,10.0,South,6.9,-,N/A,,Clear,190,2012-11-03 13:40:00
7:00 AM,28.4,-9999,N/A,30.27,10.0,SSW,6.9,-,N/A,,Clear,200,2012-11-03 14:00:00
7:20 AM,26.6,-9999,N/A,30.27,10.0,SW,6.9,-,N/A,,Clear,220,2012-11-03 14:20:00
7:40 AM,26.6,-9999,N/A,30.28,10.0,SSW,9.2,-,N/A,,Clear,210,2012-11-03 14:40:00
8:00 AM,30.2,-9999,N/A,30.29,10.0,SSW,5.8,-,N/A,,Clear,200,2012-11-03 15:00:00
8:20 AM,32.0,-9999,N/A,30.30,10.0,Calm,Calm,-,N/A,,Clear,0,2012-11-03 15:20:00
8:40 AM,35.6,-9999,N/A,30.31,10.0,Calm,Calm,-,N/A,,Clear,0,2012-11-03 15:40:00
9:00 AM,39.2,-9999,N/A,30.31,10.0,WSW,3.5,-,N/A,,Clear,250,2012-11-03 16:00:00
9:20 AM,41.0,-9999,N/A,30.32,10.0,SSW,4.6,-,N/A,,Clear,210,2012-11-03 16:20:00
9:40 AM,44.6,-9999,N/A,30.32,10.0,Calm,Calm,-,N/A,,Clear,0,2012-11-03 16:40:00
10:00 AM,46.4,-9999,N/A,30.32,10.0,Calm,Calm,-,N/A,,Clear,0,2012-11-03 17:00:00
10:20 AM,48.2,-9999,N/A,30.32,10.0,Calm,Calm,-,N/A,,Clear,0,2012-11-03 17:20:00
10:40 AM,50.0,-9999,N/A,30.32,10.0,Calm,Calm,-,N/A,,Clear,0,2012-11-03 17:40:00
11:00 AM,53.6,-9999,N/A,30.32,10.0,Calm,Calm,-,N/A,,Clear,0,2012-11-03 18:00:00
11:20 AM,53.6,-9999,N/A,30.32,10.0,Calm,Calm,-,N/A,,Clear,0,2012-11-03 18:20:00
11:40 AM,55.4,-9999,N/A,30.32,10.0,Calm,Calm,-,N/A,,Clear,0,2012-11-03 18:40:00
12:00 PM,55.4,-9999,N/A,30.32,10.0,Calm,Calm,-,N/A,,Clear,0,2012-11-03 19:00:00
12:20 PM,57.2,-9999,N/A,30.31,10.0,ENE,4.6,-,N/A,,Clear,70,2012-11-03 19:20:00
12:40 PM,59.0,-9999,N/A,30.30,10.0,Calm,Calm,-,N/A,,Clear,0,2012-11-03 19:40:00
1:00 PM,60.8,-9999,N/A,30.29,10.0,East,5.8,-,N/A,,Clear,80,2012-11-03 20:00:00
1:20 PM,62.6,-9999,N/A,30.28,10.0,ENE,5.8,-,N/A,,Clear,60,2012-11-03 20:20:00
1:40 PM,62.6,-9999,N/A,30.28,10.0,ENE,5.8,-,N/A,,Clear,70,2012-11-03 20:40:00
2:00 PM,62.6,-9999,N/A,30.28,10.0,NNW,3.5,-,N/A,,Clear,330,2012-11-03 21:00:00
2:20 PM,62.6,-9999,N/A,30.27,10.0,North,4.6,-,N/A,,Clear,10,2012-11-03 21:20:00
2:40 PM,64.4,-9999,N/A,30.27,10.0,NE,4.6,-,N/A,,Clear,40,2012-11-03 21:40:00
3:00 PM,62.6,-9999,N/A,30.26,10.0,Calm,Calm,-,N/A,,Clear,0,2012-11-03 22:00:00
3:20 PM,64.4,-9999,N/A,30.27,10.0,North,5.8,-,N/A,,Clear,10,2012-11-03 22:20:00
3:40 PM,62.6,-9999,N/A,30.27,10.0,NE,4.6,-,N/A,,Clear,50,2012-11-03 22:40:00
4:00 PM,62.6,-9999,N/A,30.27,10.0,NE,3.5,-,N/A,,Clear,50,2012-11-03 23:00:00
4:20 PM,62.6,-9999,N/A,30.27,10.0,North,5.8,-,N/A,,Clear,10,2012-11-03 23:20:00
4:40 PM,62.6,-9999,N/A,30.28,10.0,North,5.8,-,N/A,,Clear,10,2012-11-03 23:40:00
5:00 PM,60.8,-9999,N/A,30.28,10.0,NNE,6.9,-,N/A,,Clear,30,2012-11-04 00:00:00
5:20 PM,59.0,-9999,N/A,30.28,10.0,NE,3.5,-,N/A,,Clear,40,2012-11-04 00:20:00
5:40 PM,55.4,-9999,N/A,30.28,10.0,Calm,Calm,-,N/A,,Clear,0,2012-11-04 00:40:00
6:00 PM,50.0,-9999,N/A,30.29,10.0,Calm,Calm,-,N/A,,Clear,0,2012-11-04 01:00:00
6:20 PM,48.2,-9999,N/A,30.30,10.0,NW,3.5,-,N/A,,Clear,310,2012-11-04 01:20:00
6:40 PM,44.6,-9999,N/A,30.31,10.0,South,3.5,-,N/A,,Clear,180,2012-11-04 01:40:00
7:00 PM,41.0,-9999,N/A,30.32,10.0,South,4.6,-,N/A,,Clear,180,2012-11-04 02:00:00